Regional Weather Roundup
Issued by NWS

Home | Current Version | Previous Version | Text Only | Print | Product List | Glossary On
Versions: 1 2 3 4 5 6 7 8 9 10 11 12 13 14 15 16 17 18 19 20 21 22 23 24 25 26 27 28 29 30 31 32 33 34 35 36 37 38 39 40 41 42 43 44 45 46 47 48 49 50
000
ASUS43 KLSX 231210
RWRMO

WEATHER SUMMARY FOR MISSOURI
NATIONAL WEATHER SERVICE SPRINGFIELD MO
700 AM CDT MON APR 23 2018

NOTE: "FAIR" INDICATES FEW OR NO CLOUDS BELOW 12,000 FEET WITH NO
       SIGNIFICANT WEATHER AND/OR OBSTRUCTIONS TO VISIBILITY.
       CURRENT SKY AND/OR WEATHER CONDITIONS ARE NOT AVAILABLE FOR
       CHILLICOTHE AND FARMINGTON.

MOZ001>031-035>038-043-044-053-054-231300-
...NORTHERN AND WESTERN MISSOURI...

CITY           SKY/WX    TMP DP  RH WIND       PRES   REMARKS
KANSAS CTY INT CLOUDY    52  32  46 NE9       30.11S
6HR MIN TEMP:  52; 6HR MAX TEMP:  55;

KANSAS C DTWN  CLOUDY    58  30  34 NE6       30.10S
6HR MIN TEMP:  57; 6HR MAX TEMP:  61;

LEE`S SUMMIT   CLOUDY    55  32  41 NE9       30.09S
6HR MIN TEMP:  55; 6HR MAX TEMP:  57;

ST JOSEPH      CLOUDY    50  32  50 N7        30.14R
6HR MIN TEMP:  46; 6HR MAX TEMP:  58;

CHILLICOTHE      N/A     52  34  50 N5        30.13S
6HR MIN TEMP:  51; 6HR MAX TEMP:  59;

KIRKSVILLE     MOCLDY    50  33  52 N10       30.13R
6HR MIN TEMP:  50; 6HR MAX TEMP:  55;


$$
MOZ066>068-077>081-088>096-101>105-231300-
...SOUTHWEST MISSOURI...

CITY           SKY/WX    TMP DP  RH WIND       PRES   REMARKS
SPRINGFIELD    CLOUDY    53  50  89 N12       29.99R
6HR MIN TEMP:  50; 6HR MAX TEMP:  53;

JOPLIN         CLOUDY    53  48  83 N10       30.03R
6HR MIN TEMP:  51; 6HR MAX TEMP:  54;

BRANSON        CLOUDY    50  50 100 NW9       29.97R FOG

$$
MOZ032>034-039>042-045>050-055>058-069>072-231300-
...CENTRAL MISSOURI...

CITY           SKY/WX    TMP DP  RH WIND       PRES   REMARKS
COLUMBIA       CLOUDY    54  35  48 N13       30.04R
6HR MIN TEMP:  54; 6HR MAX TEMP:  57;

JEFFERSON CITY CLOUDY    56  36  47 N9G20     30.03R
6HR MIN TEMP:  56; 6HR MAX TEMP:  59; 6HR PCP: TRACE;

ROLLA          CLOUDY    51  40  65 N10       29.99R
6HR MIN TEMP:  50; 6HR MAX TEMP:  53; 6HR PCP:  0.01;

SEDALIA        CLOUDY    54  38  54 N9        30.07R
6HR MIN TEMP:  53; 6HR MAX TEMP:  58;

WHITEMAN AFB   CLOUDY    53  36  54 N6        30.03R
WARRENSBURG    CLOUDY    52  34  50 N7        30.07F
OSAGE BEACH    CLOUDY    53  46  77 N6        30.02R

$$
MOZ051-052-059>065-231300-
...EAST CENTRAL MISSOURI...

CITY           SKY/WX    TMP DP  RH WIND       PRES   REMARKS
ST LOUIS INTL  LGT RAIN  50  42  74 NE12      29.99F
6HR MIN TEMP:  50; 6HR MAX TEMP:  58; 6HR PCP:  0.02;

SPIRIT OF STL  LGT RAIN  52  42  69 N7        29.99R
6HR MIN TEMP:  52; 6HR MAX TEMP:  58; 6HR PCP:  0.01;

ST CHARLES     CLOUDY    52  38  58 NE14G23   30.00S
6HR MIN TEMP:  51; 6HR MAX TEMP:  58; 6HR PCP: TRACE;


$$
MOZ072>076-082>087-097>100-106>115-231300-
...SOUTH CENTRAL AND SOUTHEAST MISSOURI...

CITY           SKY/WX    TMP DP  RH WIND       PRES   REMARKS
CAPE GIRARDEAU CLOUDY    53  51  93 NE16      29.80R FOG
6HR MIN TEMP:  53; 6HR MAX TEMP:  58; 6HR PCP:  0.58;

FARMINGTON     LGT RAIN  47  46  97 N13       29.91S
6HR MIN TEMP:  47; 6HR MAX TEMP:  56; 6HR PCP:  0.32;

POPLAR BLUFF   LGT RAIN  53  51  93 N15G22    29.82R
6HR MIN TEMP:  53; 6HR MAX TEMP:  58; 6HR PCP:  0.54;

WEST PLAINS    LGT RAIN  52  50  93 N13G22    29.90R FOG
6HR MIN TEMP:  52; 6HR MAX TEMP:  55; 6HR PCP:  0.15;


$$



USA.gov is the U.S. government's official web portal to all federal, state and local government web resources and services.